Location: Banios
(43.0451°N, 0.2335°E)
Time: 13:05:02
(UTC+00:00)

SWARM A - Pass Details

Date: 25 January 2021
Orbit: 428 x 433 km, 87.4° (Epoch: 25 February)

Event Time Altitude Azimuth Distance (km) Brightness Sun altitude
Rises 06:39:12 0° 360° (N) 2,417 7.8 -7.9°
Reaches altitude 10° 06:41:16 10° 2° (N) 1,543 6.8 -7.5°
Maximum altitude 06:44:36 76° 88° (E) 450 4.4 -7.0°
Drops below altitude 10° 06:47:53 10° 175° (S) 1,525 7.3 -6.4°
Sets 06:49:55 0° 177° (S) 2,385 8.3 -6.0°
